Flag for China Weather past 2 weeks in Shanghai, Shanghai Municipality, China

Now
82 °F

Passing clouds.


Feels Like: 88 °F
Forecast: 80 / 89 °F
Wind: 6 mph from North

Location: Shanghai Hongqiao Airport

Current Time: Jul 26, 2014 at 2:23:26 AM

Latest Report: Jul 26, 2014 at 1:30 AM


Visibility: 4 mi

Pressure: 29.77 "Hg

Humidity: 74%

Dew point: 73 °F

Location of ShanghaiLocation

Historic Weather in Shanghai — Graph

°F

Shanghai temperature yesterday

Maximum temperature yesterday: 90 °F (at 2:30 PM)
Minimum temperature yesterday: 81 °F (at 8:30 AM)
Average temperature yesterday: 86 °F

Past Weeks' High & Low Weather Summary

 TemperatureHumidityPressure
High97 °F (Jul 12, 12:30 PM)100% (Jul 12, 8:30 PM)29.86 "Hg (Jul 12, 8:30 PM)
Low72 °F (Jul 15, 8:30 AM)47% (Jul 22, 4:00 PM)29.39 "Hg (Jul 25, 2:30 AM)
Average84 °F77%29.71 "Hg
* Reported Jul 11 1:00 AM — Jul 26 1:00 AM, Shanghai, Weather by CustomWeather, © 2014

Note: Actual official high and low records may vary slightly from our data, if they occured in-between our weather recording intervals... More about our weather records

Advertising

Shanghai weather history for previous 24 hours

 ConditionsComfort  
Time TempWeatherWind HumidityBarometerVisibility
1:00 AM
Jul 26
82 °FClear.3 mph74%29.77 "Hg4 mi
12:30 AM82 °FClear.3 mph74%29.77 "Hg4 mi
12:00 AM84 °FClear.6 mph66%29.77 "Hg4 mi
11:30 PM
Jul 25
84 °FClear.3 mph70%29.77 "Hg4 mi
10:30 PM82 °FClear.8 mph74%29.77 "Hg4 mi
10:00 PM82 °FClear.8 mph79%29.77 "Hg4 mi
9:30 PM84 °FPassing clouds.8 mph74%29.74 "HgN/A
9:00 PM84 °FPassing clouds.10 mph74%29.74 "HgN/A
8:30 PM86 °FPassing clouds.3 mph75%29.74 "HgN/A
8:00 PM86 °FPassing clouds.3 mph75%29.71 "HgN/A
7:30 PM86 °FPassing clouds.6 mph75%29.71 "HgN/A
7:00 PM86 °FPassing clouds.8 mph75%29.68 "HgN/A
6:30 PM86 °FScattered clouds.8 mph75%29.68 "HgN/A
6:00 PM88 °FSprinkles. Scattered clouds.8 mph75%29.65 "HgN/A
5:30 PM88 °FScattered clouds.10 mph70%29.65 "HgN/A
5:00 PM88 °FScattered clouds.10 mph70%29.65 "Hg5 mi
4:30 PM88 °FScattered clouds.10 mph70%29.62 "Hg4 mi
4:00 PM90 °FPassing clouds.10 mph67%29.62 "Hg4 mi
3:30 PM90 °FScattered clouds.15 mph63%29.62 "Hg5 mi
3:00 PM90 °FScattered clouds.15 mph67%29.62 "HgN/A
2:30 PM90 °FScattered clouds.13 mph71%29.62 "HgN/A
2:00 PM88 °FScattered clouds.13 mph70%29.62 "HgN/A
1:30 PM86 °FScattered clouds.15 mph75%29.59 "HgN/A
1:00 PM86 °FScattered clouds.15 mph75%29.59 "HgN/A
12:30 PM86 °FScattered clouds.13 mph75%29.59 "HgN/A
12:00 PM84 °FScattered clouds.17 mph79%29.59 "HgN/A
11:30 AM84 °FScattered clouds.15 mph79%29.59 "HgN/A
10:30 AM82 °FPartly sunny.17 mph84%29.56 "HgN/A
10:00 AM82 °FSprinkles. Partly sunny.20 mph84%29.56 "HgN/A
9:30 AM82 °FSprinkles. Partly sunny.17 mph84%29.56 "HgN/A
9:00 AM82 °FSprinkles. Partly sunny.17 mph84%29.53 "HgN/A
8:30 AM81 °FSprinkles. Partly sunny.17 mph89%29.53 "HgN/A
8:00 AM84 °FSprinkles. Overcast.24 mph74%29.50 "HgN/A
7:30 AM84 °FSprinkles. Overcast.20 mph74%29.50 "HgN/A
7:00 AM82 °FSprinkles. Overcast.22 mph79%29.47 "HgN/A
6:30 AM86 °FOvercast.26 mph66%29.45 "HgN/A
6:00 AM86 °FPartly sunny.20 mph70%29.42 "HgN/A
5:30 AM86 °FSunny.22 mph70%29.42 "Hg10 mi
5:00 AM86 °FClear.20 mph70%29.42 "Hg10 mi
4:30 AM86 °FClear.22 mph70%29.42 "Hg10 mi
4:00 AM86 °FClear.24 mph70%29.39 "Hg10 mi
3:30 AM86 °FClear.22 mph70%29.39 "Hg10 mi
3:00 AM86 °FClear.22 mph70%29.39 "Hg10 mi
2:30 AM86 °FClear.22 mph70%29.39 "Hg10 mi
2:00 AM86 °FClear.22 mph70%29.42 "Hg10 mi
Weather by CustomWeather, © 2014

See weather overviewHow to use our weather pages